Regional Weather Roundup
Issued by NWS Sioux Falls, SD

Home | Current Version | Previous Version | Text Only | Print | Product List | Glossary Off
Versions: 1 2 3 4 5 6 7 8 9 10 11 12 13 14 15 16 17 18 19 20 21 22 23 24 25 26 27 28 29 30 31 32 33 34 35 36 37 38 39 40 41 42 43 44 45 46 47 48 49 50

000
ASUS43 KFSD 191802
RWRFSD

WEATHER ROUNDUP FOR SE SOUTH DAKOTA/SW MINNESOTA/NW IOWA
NATIONAL WEATHER SERVICE SIOUX FALLS SD
1200 PM CST SUN NOV 19 2017

NOTE: "FAIR" INDICATES FEW OR NO CLOUDS BELOW 12,000 FEET WITH NO
SIGNIFICANT WEATHER AND OR OBSTRUCTIONS TO VISIBILITY.


SDZ038>040-050-052>070-191900-
SOUTHEAST SOUTH DAKOTA

CITY           SKY/WX    TMP DP  RH WIND       PRES   REMARKS
BROOKINGS      SUNNY     45  25  45 SW15      29.96
CHAMBERLAIN    SUNNY     47  29  49 SW8       29.97F
6HR MIN TEMP:  22; 6HR MAX TEMP:  47;

HURON          SUNNY     51  23  33 SW14      29.95F
6HR MIN TEMP:  20; 6HR MAX TEMP:  51;

MADISON        FAIR      43  25  49 W10       29.98F
MITCHELL       SUNNY     50  24  36 S12       29.99F
6HR MIN TEMP:  27; 6HR MAX TEMP:  50;

SIOUX FALLS    MOSUNNY   47  27  45 SW10      30.01F
6HR MIN TEMP:  21; 6HR MAX TEMP:  47;

WINNER         FAIR      51  27  39 SW9       29.97F
YANKTON        SUNNY     50  25  37 S10       30.02F
$$

MNZ071-072-080-081-089-090-097-098-191900-
SOUTHWEST MINNESOTA

CITY           SKY/WX    TMP DP  RH WIND       PRES   REMARKS
FAIRMONT       SUNNY     41  23  48 SW14      30.02F
JACKSON        SUNNY     43  25  49 SW12      30.01F
LUVERNE        SUNNY     43  23  45 SW10      30.02F
MARSHALL       SUNNY     46  25  43 W21       29.95F
6HR MIN TEMP:  23; 6HR MAX TEMP:  46;

MONTEVIDEO     SUNNY     45  28  53 W6        29.95F
PIPESTONE      SUNNY     43  27  52 W12       29.98F
REDWOOD FALLS  SUNNY     44  23  43 SW12      29.97F
WINDOM         SUNNY     45  25  45 SW13      29.99F
WORTHINGTON    SUNNY     42  25  50 SW17      30.00F
$$

IAZ001>003-012>014-020>022-031-032-NEZ013-014-SDZ071-191900-
NORTHWEST IOWA

CITY           SKY/WX    TMP DP  RH WIND       PRES   REMARKS
DENISON        SUNNY     45  25  45 SW9G16    30.11F
ESTHERVILLE    SUNNY     41  25  53 SW17      30.03F
LE MARS        SUNNY     45  28  53 S10       30.05F
ORANGE CITY    SUNNY     45  28  53 SW13      30.04F
SHELDON        SUNNY     45  27  49 SW10      30.02F
SIOUX CITY     SUNNY     46  30  53 S7        30.08F
6HR MIN TEMP:  17; 6HR MAX TEMP:  46;

SPENCER        SUNNY     44  25  47 SW14      30.04F
6HR MIN TEMP:  16; 6HR MAX TEMP:  44;

STORM LAKE     SUNNY     43  27  52 SW14G21   30.06F
$$

ABBREVIATIONS USED IN REMARKS
   TC - TEMPERATURE IN CELSIUS
  WCI - WIND CHILL INDEX
   HX - HEAT INDEX
  VSB - VISIBILITY





USA.gov is the U.S. government's official web portal to all federal, state and local government web resources and services.